7 * 24
多渠道服务支持
STARLINK-36998(NORAD编号68286)是美国SpaceX公司星链(Starlink)星座的一员,属于低轨宽带通信卫星。星链项目旨在通过近地轨道卫星组网,为全球尤其是偏远地区提供高速低延迟互联网接入服务,目前已完成大规模部署并持续扩展。 该卫星运行于近地轨道,是SpaceX万颗星链组网计划的组成部分,配备相控阵天线等技术,支持多用户通信与高效频谱利用。2026年SpaceX启动降轨计划,将包括STARLINK-36998在内的数千颗星链卫星轨道高度从550公里降至480公里,以降低碰撞风险,减少太空碎片隐患,提升太空运行安全性。
美国
(US)
| 数据来源 | 国际轨道数据 |
| 星历时间: | 2026-04-14T20:46:45+0800 7小时前 查看轨道信息 |
| 半长轴: | 6706.053km |
| 偏心率: | 0.000161 |
| 轨道倾角: | 53.158° |
| 近地点辐角 | 85.992° |
| 升交点赤经 | 157.447° |
| 平近点角 | 274.129° |
| 近地点: | 326.836km |
| 远地点: | 328.996km |
| 周期: | 91.088分钟 |
| 每日圈数: | 15.808925 |